Regional Weather Roundup
Issued by NWS Green Bay, WI

Home | Current Version | Previous Version | Graphics & Text | Print | Product List | Glossary Off
Versions: 1 2 3 4 5 6 7 8 9 10 11 12 13 14 15 16 17 18 19 20 21 22 23 24 25 26 27 28 29 30 31 32 33 34 35 36 37 38 39 40 41 42 43 44 45 46 47 48 49 50

000
ASUS43 KGRB 240111
RWRGRB

NORTH-CENTRAL AND NORTHEAST WISCONSIN REGIONAL WEATHER ROUNDUP
NATIONAL WEATHER SERVICE GREEN BAY WI
700 PM CST FRI FEB 23 2018

WIZ005-009-010>012-018-019-240200-
NORTH CENTRAL WISCONSIN

CITY           SKY/WX    TMP DP  RH WIND       PRES   REMARKS
IRONWOOD       CLOUDY    28  22  78 W12       30.17R
MANITOWISH WTR CLOUDY    27  24  87 W7        30.16R
ARBOR VITAE    CLOUDY    29  25  84 W6        30.15R
EAGLE RIVER    CLOUDY    28  22  79 W7        30.14R
LAND O LAKES   CLOUDY    28  23  82 W5        30.15R
RHINELANDER    CLOUDY    28  23  81 W10       30.16R
PHILLIPS       CLOUDY    27  22  80 SW3       30.18R
ANTIGO         CLOUDY    28  23  82 W9        30.18R
TOMAHAWK       CLOUDY    27  23  84 W5        30.19R
MERRILL        CLOUDY    28  23  80 W8        30.20R
$$

WIZ013-073-240200-
NORTHEAST WISCONSIN

CITY           SKY/WX    TMP DP  RH WIND       PRES   REMARKS
IRON MOUNTAIN  CLOUDY    31  24  75 W8        30.14R
MARINETTE      CLOUDY    34  25  69 VRB3      30.19R
OCONTO         CLOUDY    33  27  77 W6        30.19R
$$

WIZ017-030-035>037-045-240200-
CENTRAL WISCONSIN

CITY           SKY/WX    TMP DP  RH WIND       PRES   REMARKS
MEDFORD        CLOUDY    26  21  83 W7        30.20R
WAUSAU         CLOUDY    28  22  78 W10       30.19R
MOSINEE        CLOUDY    28  23  80 W8        30.22R
MARSHFIELD     CLOUDY    27  21  78 W10       30.21R
WISC RAPIDS    CLOUDY    30  21  69 NW7       30.24R
STEVENS POINT  CLOUDY    28  21  76 W10G17    30.23R
WAUPACA        CLOUDY    33  24  68 W9G17     30.23R
SHAWANO        CLOUDY    34  25  69 W7        30.20R
CLINTONVILLE   CLOUDY    32  23  68 W12       30.21R
WAUTOMA        CLOUDY    31  24  75 W13       30.24R
$$

WIZ038-039-048-051-240200-
FOX VALLEY

CITY           SKY/WX    TMP DP  RH WIND       PRES   REMARKS
NWS GREEN BAY  CLOUDY    33  24  69 W12       30.21R
APPLETON       CLOUDY    32  21  64 W14       30.20R
OSHKOSH        CLOUDY    32  26  78 W14       30.22R
FOND DU LAC    MOCLDY    33  24  69 NW9       30.23R
$$

WIZ022-050-052-240200-
EAST CENTRAL WISCONSIN

CITY           SKY/WX    TMP DP  RH WIND       PRES   REMARKS
EPHRAIM        CLOUDY    33  27  76 W10       30.16R
WASHINGTON ISL CLOUDY    34  27  77 W8        30.16R
STURGEON BAY   CLOUDY    33  28  81 W9        30.19R
MANITOWOC      CLOUDY    34  27  75 NW13      30.22R
SHEBOYGAN      CLOUDY    34  28  79 W15G21    30.21R
$$

LMZ563-521-522-541>543-240200-
LAKESHORE

STATION/POSITION TIME  TEMP    WIND        PRES    VSBY  WAVE
                       AIR SEA DIR/SP/G                  HT/PER
                 (UTC) (F)     (DEG/KT/KT) (MB)    (MI)  (FT/S)
SHEBOYGAN LKSHOR 0100   35     290/ 11/ 16 1024.0R
KEWAUNEE LKSHORE 0042   34     290/ 10/ 16 1021.6R
NORTHPORT PIER   0040   35                 1021.0R
MENOMINEE LKSHOR 0042   35     260/  9/ 15 1021.6R
$$




USA.gov is the U.S. government's official web portal to all federal, state and local government web resources and services.